Location: Koblenz
(50.3564°N, 7.5916°E)
Time: 00:58:26
(UTC+01:00)

ISS - Visible Passes

Search period start: 29 November 2021 00:00
Search period end: 09 December 2021 00:00
Orbit: 417 x 423 km, 51.6° (Epoch: 28 November)

Date Brightness Start Highest point End Pass type
(mag) Time Alt. Az. Time Alt. Az. Time Alt. Az.
29 Nov -3.7 17:04:45 10° WSW 17:08:09 85° NNW 17:11:35 10° ENE visible
29 Nov -3.6 18:41:43 10° WNW 18:44:54 69° NNW 18:44:54 69° NNW visible
30 Nov -3.7 17:54:30 10° W 17:57:54 69° N 17:59:38 26° E visible
30 Nov -1.1 19:31:24 10° WNW 19:32:37 20° W 19:32:37 20° W visible
01 Dec -3.7 17:07:15 10° W 17:10:39 69° N 17:14:03 10° E visible
01 Dec -3.6 18:44:11 10° WNW 18:47:22 75° WSW 18:47:22 75° WSW visible
02 Dec -3.8 17:56:57 10° WNW 18:00:22 83° NNE 18:02:11 26° E visible
02 Dec -0.9 19:33:55 10° W 19:35:10 19° W 19:35:10 19° W visible
03 Dec -3.7 17:09:42 10° WNW 17:13:07 73° N 17:16:31 10° E visible
03 Dec -3.0 18:46:36 10° W 18:49:53 46° SSW 18:50:04 46° SSW visible
04 Dec -3.4 17:59:19 10° WNW 18:02:42 63° SSW 18:05:05 18° SE visible
04 Dec -0.7 19:36:51 10° W 19:38:05 15° WSW 19:38:05 15° WSW visible
05 Dec -3.6 17:12:03 10° WNW 17:15:28 82° SSW 17:18:51 10° ESE visible
05 Dec -1.6 18:49:12 10° W 18:51:58 23° SW 18:53:16 18° S visible
06 Dec -2.0 18:01:44 10° W 18:04:50 33° SSW 18:07:55 10° SSE visible
07 Dec -2.6 17:14:22 10° W 17:17:38 46° SSW 17:20:54 10° SE visible
07 Dec -0.4 18:53:00 10° WSW 18:53:48 11° SW 18:54:36 10° SSW visible
08 Dec -0.7 18:04:34 10° W 18:06:44 16° SW 18:08:53 10° S visible
